TimeEDT,TemperatureF,Dew PointF,Humidity,Sea Level PressureIn,VisibilityMPH,Wind Direction,Wind SpeedMPH,Gust SpeedMPH,PrecipitationIn,Events,Conditions,WindDirDegrees,DateUTC
12:11 AM,66.2,66.2,100,30.05,1.5,Calm,Calm,-,N/A,,Clear,0,2013-08-30 04:11:00
12:20 AM,68.0,66.2,94,30.05,2.0,Calm,Calm,-,N/A,,Clear,0,2013-08-30 04:20:00
12:24 AM,66.2,66.2,100,30.05,1.2,Calm,Calm,-,N/A,,Clear,0,2013-08-30 04:24:00
12:33 AM,66.2,66.2,100,30.05,0.8,Calm,Calm,-,N/A,,Clear,0,2013-08-30 04:33:00
12:41 AM,66.2,66.2,100,30.05,0.8,Calm,Calm,-,N/A,,Mist,0,2013-08-30 04:41:00
12:47 AM,66.2,66.2,100,30.05,1.5,Calm,Calm,-,N/A,,Clear,0,2013-08-30 04:47:00
12:54 AM,66.9,66.0,97,30.05,2.0,Calm,Calm,-,N/A,,Clear,0,2013-08-30 04:54:00
1:17 AM,66.2,66.2,100,30.05,1.2,Calm,Calm,-,N/A,,Clear,0,2013-08-30 05:17:00
1:27 AM,66.2,66.2,100,30.05,2.0,Calm,Calm,-,N/A,,Clear,0,2013-08-30 05:27:00
1:41 AM,66.2,66.2,100,30.05,1.2,Calm,Calm,-,N/A,,Partly Cloudy,0,2013-08-30 05:41:00
1:54 AM,66.0,66.0,100,30.05,1.8,Calm,Calm,-,N/A,,Clear,0,2013-08-30 05:54:00
2:15 AM,66.2,64.4,94,30.04,0.8,Calm,Calm,-,N/A,,Clear,0,2013-08-30 06:15:00
2:22 AM,66.2,64.4,94,30.04,0.8,Calm,Calm,-,N/A,,Mist,0,2013-08-30 06:22:00
2:32 AM,66.2,64.4,94,30.04,1.0,Calm,Calm,-,N/A,,Mist,0,2013-08-30 06:32:00
2:34 AM,66.2,64.4,94,30.04,1.5,Calm,Calm,-,N/A,,Partly Cloudy,0,2013-08-30 06:34:00
2:50 AM,64.4,64.4,100,30.04,1.2,Calm,Calm,-,N/A,,Partly Cloudy,0,2013-08-30 06:50:00
2:54 AM,64.9,64.9,100,30.04,2.0,Calm,Calm,-,N/A,,Partly Cloudy,0,2013-08-30 06:54:00
3:03 AM,64.4,64.4,100,30.05,3.0,Calm,Calm,-,N/A,,Clear,0,2013-08-30 07:03:00
3:09 AM,64.4,64.4,100,30.05,1.8,Calm,Calm,-,N/A,,Clear,0,2013-08-30 07:09:00
3:16 AM,64.4,64.4,100,30.05,1.0,Calm,Calm,-,N/A,,Mist,0,2013-08-30 07:16:00
3:23 AM,64.4,64.4,100,30.05,1.0,Calm,Calm,-,N/A,,Mist,0,2013-08-30 07:23:00
3:31 AM,64.4,64.4,100,30.04,0.8,Calm,Calm,-,N/A,,Mist,0,2013-08-30 07:31:00
3:36 AM,64.4,64.4,100,30.05,1.2,Calm,Calm,-,N/A,,Scattered Clouds,0,2013-08-30 07:36:00
3:47 AM,64.4,64.4,100,30.05,1.0,Calm,Calm,-,N/A,,Mist,0,2013-08-30 07:47:00
3:51 AM,64.4,64.4,100,30.05,1.5,Calm,Calm,-,N/A,,Clear,0,2013-08-30 07:51:00
3:54 AM,64.9,64.9,100,30.04,1.5,Calm,Calm,-,N/A,,Clear,0,2013-08-30 07:54:00
4:01 AM,64.4,64.4,100,30.04,1.0,Calm,Calm,-,N/A,,Clear,0,2013-08-30 08:01:00
4:08 AM,64.4,64.4,100,30.04,0.8,Calm,Calm,-,N/A,,Clear,0,2013-08-30 08:08:00
4:19 AM,64.4,64.4,100,30.05,1.5,Calm,Calm,-,N/A,,Clear,0,2013-08-30 08:19:00
4:27 AM,64.4,64.4,100,30.05,2.0,Calm,Calm,-,N/A,,Clear,0,2013-08-30 08:27:00
4:41 AM,64.4,64.4,100,30.05,1.2,Calm,Calm,-,N/A,,Clear,0,2013-08-30 08:41:00
4:54 AM,64.0,64.0,100,30.05,2.0,Calm,Calm,-,N/A,,Clear,0,2013-08-30 08:54:00
5:26 AM,64.4,64.4,100,30.06,3.0,Calm,Calm,-,N/A,,Clear,0,2013-08-30 09:26:00
5:34 AM,64.4,64.4,100,30.06,2.5,Calm,Calm,-,N/A,,Partly Cloudy,0,2013-08-30 09:34:00
5:37 AM,64.4,64.4,100,30.05,1.2,Calm,Calm,-,N/A,,Scattered Clouds,0,2013-08-30 09:37:00
5:40 AM,64.4,62.6,94,30.05,0.8,Calm,Calm,-,N/A,,Mist,0,2013-08-30 09:40:00
5:51 AM,62.6,62.6,100,30.06,1.0,Calm,Calm,-,N/A,,Mostly Cloudy,0,2013-08-30 09:51:00
5:54 AM,64.0,63.0,96,30.05,2.0,Calm,Calm,-,N/A,,Mostly Cloudy,0,2013-08-30 09:54:00
6:04 AM,64.4,62.6,94,30.06,2.5,Calm,Calm,-,N/A,,Overcast,0,2013-08-30 10:04:00
6:13 AM,64.4,64.4,100,30.06,3.0,Calm,Calm,-,N/A,,Mostly Cloudy,0,2013-08-30 10:13:00
6:16 AM,64.4,64.4,100,30.06,1.8,Calm,Calm,-,N/A,,Mostly Cloudy,0,2013-08-30 10:16:00
6:23 AM,64.4,62.6,94,30.06,1.0,Calm,Calm,-,N/A,,Mist,0,2013-08-30 10:23:00
6:30 AM,64.4,64.4,100,30.06,0.8,Calm,Calm,-,N/A,,Mist,0,2013-08-30 10:30:00
6:45 AM,64.4,62.6,94,30.07,1.2,Calm,Calm,-,N/A,,Clear,0,2013-08-30 10:45:00
6:54 AM,64.0,63.0,96,30.06,1.8,Calm,Calm,-,N/A,,Partly Cloudy,0,2013-08-30 10:54:00
7:01 AM,64.4,62.6,94,30.07,2.0,Calm,Calm,-,N/A,,Clear,0,2013-08-30 11:01:00
7:36 AM,66.2,64.4,94,30.07,3.0,Calm,Calm,-,N/A,,Clear,0,2013-08-30 11:36:00
7:54 AM,66.0,66.0,100,30.07,3.0,Calm,Calm,-,N/A,,Clear,0,2013-08-30 11:54:00
8:54 AM,72.0,68.0,87,30.07,9.0,Calm,Calm,-,N/A,,Clear,0,2013-08-30 12:54:00
9:54 AM,73.9,66.9,79,30.08,9.0,Calm,Calm,-,N/A,,Overcast,0,2013-08-30 13:54:00
10:54 AM,77.0,66.0,69,30.08,10.0,SE,4.6,-,N/A,,Clear,140,2013-08-30 14:54:00
11:54 AM,79.0,66.9,66,30.06,10.0,SE,4.6,-,N/A,,Clear,140,2013-08-30 15:54:00
12:54 PM,81.0,66.9,62,30.04,10.0,South,6.9,-,N/A,,Partly Cloudy,180,2013-08-30 16:54:00
1:54 PM,82.9,66.0,56,30.02,10.0,Variable,5.8,-,N/A,,Partly Cloudy,0,2013-08-30 17:54:00
2:54 PM,84.0,66.0,55,29.99,10.0,Variable,3.5,-,N/A,,Partly Cloudy,0,2013-08-30 18:54:00
3:54 PM,84.0,66.0,55,29.97,10.0,Variable,4.6,-,N/A,,Mostly Cloudy,0,2013-08-30 19:54:00
4:54 PM,84.0,66.0,55,29.96,10.0,WSW,4.6,-,N/A,,Partly Cloudy,250,2013-08-30 20:54:00
5:54 PM,84.0,66.0,55,29.96,10.0,South,6.9,-,N/A,,Scattered Clouds,190,2013-08-30 21:54:00
6:54 PM,80.1,70.0,71,29.95,10.0,Calm,Calm,-,N/A,,Clear,0,2013-08-30 22:54:00
7:54 PM,75.0,69.1,82,29.95,10.0,SE,3.5,-,N/A,,Clear,130,2013-08-30 23:54:00
8:54 PM,75.9,68.0,76,29.95,10.0,Variable,3.5,-,N/A,,Clear,0,2013-08-31 00:54:00
9:54 PM,73.9,68.0,82,29.95,10.0,SSE,3.5,-,N/A,,Clear,150,2013-08-31 01:54:00
10:54 PM,73.9,68.0,82,29.96,10.0,Calm,Calm,-,N/A,,Clear,0,2013-08-31 02:54:00
11:54 PM,71.1,68.0,90,29.96,10.0,Calm,Calm,-,N/A,,Clear,0,2013-08-31 03:54:00